Terminal Aerodrome Forecast
Issued by NWS

Home | Current Version | Previous Version | Text Only | Print | Product List | Glossary On
Versions: 1 2 3 4 5 6 7 8 9 10 11 12 13 14 15 16 17 18 19 20 21 22 23 24 25 26 27 28 29 30 31 32 33 34 35 36 37 38 39 40 41 42 43 44 45 46 47 48 49 50
000
FTUS41 KRNK 050739 AAB
TAFBCB
TAF AMD
KBCB 050739Z 0508/0606 VRB03KT 6SM -RA BR BKN007 OVC022
     FM051200 32005KT 4SM -PL BR OVC006
     FM051600 33006KT 1SM -SNPL BR OVC004
     FM052200 33006KT 4SM -SN BR OVC010
     FM060100 32008KT P6SM BKN035=

USA.gov is the U.S. government's official web portal to all federal, state and local government web resources and services.